Regional Weather Roundup
Issued by NWS Newport/Morehead, NC

Current Version | Previous Version | Text Only | Print | Product List | Glossary On
Versions: 1 2 3 4 5 6 7 8 9 10 11 12 13 14 15 16 17 18 19 20 21 22 23 24 25 26 27 28 29 30 31 32 33 34 35 36 37 38 39 40 41 42 43 44 45 46 47 48 49 50
463
ASUS42 KMHX 231525
RWRMHX
WEATHER ROUNDUP FOR EASTERN NORTH CAROLINA
NATIONAL WEATHER SERVICE NEWPORT/MOREHEAD CITY NC
1100 AM EDT MON APR 23 2018

NOTE: "FAIR" INDICATES FEW OR NO CLOUDS BELOW 12,000 FEET
WITH NO SIGNIFICANT WEATHER AND/OR OBSTRUCTIONS TO VISIBILITY

NCZ015>017-031-032-045>047-102-103-231600-
NORTH COAST

CITY           SKY/WX    TMP DP  RH WIND       PRES   REMARKS
EDENTON        FAIR      68  55  63 E9        30.41R
ELIZABETH CITY FAIR      67  51  56 E15G23    30.40R
KITTY HAWK     FAIR      61  50  66 E6        30.39S
MANTEO         FAIR      65  49  57 SE12      30.41R

$$

NCZ045>047-081-094-103-104-231600-
CENTRAL COAST

CITY           SKY/WX    TMP DP  RH WIND       PRES   REMARKS
FRISCO         FAIR      69  53  56 SE15      30.38R

$$

NCZ095-097-098-100-101-231600-
SOUTHERN COAST

CITY           SKY/WX    TMP DP  RH WIND       PRES   REMARKS
BEAUFORT       FAIR      69  53  56 E12G22    30.34R
CEDAR ISLAND   NOT AVBL
JACKSONVILLE   PTSUNNY   68  51  54 E22G30    30.30R
PINEY ISLAND   NOT AVBL
WILMINGTON     CLOUDY    67  54  63 E12G25    30.30R


$$

NCZ011>013-027>030-043-044-078>080-089-090>093-098-231600-
COASTAL PLAIN

CITY           SKY/WX    TMP DP  RH WIND       PRES   REMARKS
AHOSKIE        FAIR      67  47  49 SE9G18    30.38R
CLINTON        FAIR      64  53  67 CALM      30.31R
ELIZABETHTOWN  CLOUDY    64  53  67 MISG      30.29R
GOLDSBORO      FAIR      66  51  59 E21G28    30.28F
GREENVILLE     FAIR      70  46  43 E16G28    30.34F
HAVELOCK       CLOUDY    69  53  56 E23G29    30.34S
KENANSVILLE    FAIR      66  50  55 SE5G17    30.32R
KINSTON        PTSUNNY   68  50  52 E9G23     30.33F
NEW BERN       FAIR      68  50  52 SE15G24   30.35R
RICHLANDS      FAIR      67  51  56 E16G29    30.30S
ROCKY MOUNT    FAIR      66  49  54 E9G20     30.34F
WASHINGTON     PTSUNNY   71  49  45 SE14G21   30.36F
WHITEVILLE     CLOUDY    64  56  76 NE6       30.28R

$$

AMZ130-135-150-152-154-156-158-170-250-252-270-ANZ085-086-088-633-658-670-231600-
MARINE OBSERVATIONS

STATION/POSITION TIME  TEMP    WIND        PRES    WAVE   SWELL
                       AIR SEA DIR/SP/G            HT/PER HT/PER
                 (UTC) (F)     (DEG/KT/KT) (MB)    (FT/S) (FT/S)
CHESAPEAKE LIGHT NOT AVBL
64 E VA BEACH    1450   54 50   90/ 14/ 14 1030.7    3/ 4   2/ 8
DUCK             1500   56 54   80/ 14/ 15 1029.0
2 E DUCK         1430      53                N/A     2/15   2/15
OREGON INLET     1454   60 55   70/ 10/ 13 1028.9
13E OREGON INLT  1448      52                N/A     3/15   2/15
HATTERAS CG      1500   66 61  120/ 11/ 15 1028.5
DIAMOND BUOY     1510   66 71  100/ 19/ 25 1028.9
CAPE LOOKOUT     1500          100/ 18/ 19 1027.6
BEAUFORT LAB     1500   66 63  120/ 19/ 24 1027.5
30 SE NEW RVR IN 1508   67 65  120/ 17/ 23 1025.9
30 SE NEW RVR IN 1430      65                N/A     6/ 6
27 SE WRIGHTSVLE 1508   67 65  120/ 21/ 31 1025.9
5 SE WRIGHTSVLE  1508   64 61  110/ 12/ 17 1025.0
225 S CAPE HAT   1510   69 72  100/ 19/ 25 1025.3
41 SE CHARLESTON 1510   68 67  110/ 23/ 31 1020.4

$$




USA.gov is the U.S. government's official web portal to all federal, state and local government web resources and services.